Radiation Dose at Monitoring Post of Fukushima Daini Nuclear Power Station
Date,Time,MP-1(microSv/h),MP-2(microSv/h),MP-3(microSv/h),MP-4(microSv/h),MP-5(microSv/h),MP-6(microSv/h),MP-7(microSv/h),Wind Direction,Wind Velocity(m/s),Rain
2016/11/17,00:00,0.411,0.237,0.422,0.386,0.366,0.199,0.172,west-northwest,2.4,No
2016/11/17,00:10,0.412,0.237,0.421,0.385,0.364,0.199,0.171,west-southwest,3.4,No
2016/11/17,00:20,0.413,0.235,0.421,0.384,0.363,0.198,0.172,southwest,4.9,No
2016/11/17,00:30,0.412,0.236,0.422,0.385,0.365,0.198,0.171,south-southwest,4.6,No
2016/11/17,00:40,0.411,0.236,0.424,0.386,0.364,0.198,0.172,south-southwest,4.3,No
2016/11/17,00:50,0.411,0.237,0.422,0.385,0.365,0.198,0.170,southwest,4.2,No
2016/11/17,01:00,0.413,0.236,0.422,0.385,0.363,0.199,0.171,southwest,5.0,No
2016/11/17,01:10,0.412,0.237,0.422,0.385,0.365,0.199,0.170,southwest,4.8,No
2016/11/17,01:20,0.414,0.235,0.425,0.385,0.365,0.199,0.172,west-southwest,4.6,No
2016/11/17,01:30,0.414,0.237,0.422,0.385,0.364,0.200,0.173,west-southwest,4.9,No
2016/11/17,01:40,0.412,0.236,0.424,0.385,0.364,0.200,0.173,southwest,4.2,No
2016/11/17,01:50,0.412,0.238,0.424,0.386,0.364,0.199,0.171,southwest,2.9,No
2016/11/17,02:00,0.414,0.238,0.422,0.386,0.364,0.199,0.171,southwest,2.9,No
2016/11/17,02:10,0.412,0.237,0.421,0.385,0.364,0.200,0.171,southwest,3.7,No
2016/11/17,02:20,0.411,0.237,0.421,0.385,0.364,0.199,0.171,southwest,4.5,No
2016/11/17,02:30,0.412,0.237,0.424,0.386,0.364,0.199,0.172,southwest,5.2,No
2016/11/17,02:40,0.413,0.235,0.422,0.385,0.364,0.198,0.171,southwest,5.1,No
2016/11/17,02:50,0.412,0.237,0.422,0.385,0.364,0.198,0.170,southwest,5.8,No
2016/11/17,03:00,0.411,0.237,0.422,0.386,0.364,0.199,0.170,southwest,6.7,No
2016/11/17,03:10,0.413,0.236,0.422,0.384,0.363,0.199,0.172,southwest,6.6,No
2016/11/17,03:20,0.412,0.236,0.421,0.386,0.364,0.198,0.173,southwest,6.0,No
2016/11/17,03:30,0.411,0.236,0.421,0.384,0.365,0.198,0.172,southwest,4.3,No
2016/11/17,03:40,0.413,0.236,0.423,0.386,0.364,0.198,0.171,south-southwest,4.5,No
2016/11/17,03:50,0.412,0.236,0.420,0.385,0.363,0.199,0.172,southwest,4.7,No
2016/11/17,04:00,0.413,0.236,0.421,0.385,0.364,0.198,0.172,southwest,5.1,No
2016/11/17,04:10,0.412,0.236,0.424,0.385,0.363,0.199,0.171,south-southwest,5.7,No
2016/11/17,04:20,0.413,0.236,0.422,0.385,0.362,0.199,0.172,south-southwest,6.1,No
2016/11/17,04:30,0.411,0.235,0.423,0.384,0.364,0.199,0.171,south-southwest,7.1,No
2016/11/17,04:40,0.411,0.236,0.423,0.385,0.365,0.199,0.172,south-southwest,6.5,No
2016/11/17,04:50,0.414,0.237,0.421,0.385,0.364,0.199,0.170,southwest,4.2,No
2016/11/17,05:00,0.413,0.238,0.420,0.386,0.362,0.199,0.172,south-southwest,4.8,No
2016/11/17,05:10,0.411,0.237,0.422,0.385,0.365,0.200,0.170,southwest,4.5,No
2016/11/17,05:20,0.411,0.237,0.420,0.385,0.364,0.199,0.172,south-southwest,6.2,No
2016/11/17,05:30,0.412,0.236,0.422,0.385,0.363,0.199,0.170,south-southwest,7.1,No
2016/11/17,05:40,0.413,0.237,0.422,0.385,0.364,0.198,0.173,southwest,6.6,No
2016/11/17,05:50,0.412,0.236,0.423,0.385,0.365,0.199,0.170,southwest,5.7,No
2016/11/17,06:00,0.414,0.236,0.422,0.384,0.363,0.200,0.172,southwest,4.5,No
2016/11/17,06:10,0.412,0.237,0.424,0.385,0.364,0.199,0.170,southwest,4.0,No
2016/11/17,06:20,0.411,0.236,0.423,0.386,0.363,0.199,0.171,southwest,3.8,No
2016/11/17,06:30,0.411,0.235,0.422,0.384,0.364,0.199,0.171,southwest,3.0,No
2016/11/17,06:40,0.412,0.236,0.422,0.385,0.365,0.198,0.171,west,1.7,No
2016/11/17,06:50,0.413,0.236,0.422,0.386,0.364,0.200,0.170,north,6.7,No
2016/11/17,07:00,0.413,0.237,0.423,0.387,0.364,0.199,0.172,north,11.3,No
2016/11/17,07:10,0.413,0.237,0.422,0.385,0.365,0.199,0.171,north,10.3,No
2016/11/17,07:20,0.413,0.237,0.422,0.385,0.366,0.199,0.171,north,10.8,No
2016/11/17,07:30,0.412,0.237,0.423,0.385,0.362,0.199,0.171,north,9.2,No
2016/11/17,07:40,0.414,0.237,0.421,0.384,0.363,0.199,0.172,north,7.3,No
2016/11/17,07:50,0.413,0.237,0.424,0.386,0.364,0.199,0.172,north-northwest,3.6,No
2016/11/17,08:00,0.412,0.237,0.424,0.384,0.363,0.199,0.171,north-northwest,3.1,No
2016/11/17,08:10,0.414,0.237,0.421,0.385,0.363,0.199,0.171,north,3.3,No
2016/11/17,08:20,0.413,0.237,0.422,0.384,0.365,0.198,0.170,north,4.6,No
2016/11/17,08:30,0.411,0.236,0.422,0.384,0.364,0.199,0.170,north,5.5,No
2016/11/17,08:40,0.414,0.237,0.420,0.385,0.362,0.200,0.171,north,4.8,No
2016/11/17,08:50,0.412,0.236,0.424,0.383,0.366,0.199,0.170,north,5.6,No
2016/11/17,09:00,0.411,0.237,0.420,0.384,0.364,0.199,0.171,north,4.8,No
2016/11/17,09:10,0.414,0.235,0.421,0.381,0.363,0.200,0.171,north,4.0,No
2016/11/17,09:20,0.412,0.236,0.422,0.383,0.365,0.198,0.171,north-northeast,6.2,No
2016/11/17,09:30,0.412,0.236,0.419,0.383,0.363,0.199,0.171,north-northeast,6.3,No
2016/11/17,09:40,0.413,0.236,0.422,0.384,0.362,0.199,0.170,north-northeast,6.6,No
2016/11/17,09:50,0.410,0.236,0.420,0.384,0.362,0.198,0.172,north-northeast,6.8,No
2016/11/17,10:00,0.412,0.237,0.421,0.382,0.364,0.198,0.170,north-northeast,6.4,No
2016/11/17,10:10,0.410,0.236,0.422,0.386,0.362,0.198,0.171,north-northeast,7.0,No
2016/11/17,10:20,0.412,0.236,0.420,0.383,0.364,0.199,0.171,north-northeast,7.6,No
2016/11/17,10:30,0.410,0.238,0.424,0.386,0.365,0.199,0.172,north-northeast,7.8,No
2016/11/17,10:40,0.413,0.234,0.422,0.384,0.363,0.200,0.170,north-northeast,8.0,No
2016/11/17,10:50,0.411,0.237,0.423,0.385,0.363,0.199,0.172,northeast,6.6,No
2016/11/17,11:00,0.411,0.235,0.420,0.384,0.364,0.199,0.172,north-northeast,6.9,No
2016/11/17,11:10,0.413,0.235,0.419,0.387,0.364,0.198,0.172,northeast,5.7,No
2016/11/17,11:20,0.411,0.233,0.421,0.384,0.362,0.199,0.171,northeast,5.7,No
2016/11/17,11:30,0.413,0.234,0.420,0.386,0.364,0.199,0.172,northeast,5.8,No
2016/11/17,11:40,0.412,0.236,0.421,0.383,0.363,0.199,0.171,northeast,6.3,No
2016/11/17,11:50,0.416,0.236,0.420,0.386,0.368,0.198,0.172,northeast,8.6,No
2016/11/17,12:00,0.410,0.237,0.420,0.383,0.363,0.199,0.170,northeast,8.4,No
2016/11/17,12:10,0.412,0.237,0.420,0.385,0.366,0.199,0.172,north-northeast,9.2,No
2016/11/17,12:20,0.411,0.237,0.421,0.383,0.363,0.200,0.170,north,8.0,No
2016/11/17,12:30,0.417,0.237,0.420,0.388,0.363,0.199,0.172,north-northeast,8.4,No
2016/11/17,12:40,0.412,0.237,0.420,0.384,0.362,0.199,0.171,north,7.5,No
2016/11/17,12:50,0.412,0.237,0.423,0.386,0.367,0.200,0.173,north-northeast,8.5,No
2016/11/17,13:00,0.413,0.237,0.422,0.384,0.363,0.199,0.171,north-northeast,6.4,No
2016/11/17,13:10,0.410,0.237,0.419,0.384,0.365,0.199,0.173,northeast,5.0,No
2016/11/17,13:20,0.416,0.237,0.423,0.384,0.363,0.200,0.172,northeast,4.9,No
2016/11/17,13:30,0.412,0.238,0.418,0.384,0.366,0.198,0.172,-,CALM,No
2016/11/17,13:40,0.413,0.236,0.418,0.385,0.362,0.200,0.170,northwest,1.2,No
2016/11/17,13:50,0.411,0.236,0.411,0.382,0.365,0.198,0.172,northwest,5.0,No
2016/11/17,14:00,0.412,0.236,0.416,0.386,0.363,0.199,0.172,north-northwest,3.8,No
2016/11/17,14:10,0.411,0.238,0.417,0.382,0.365,0.197,0.172,northwest,3.3,No
2016/11/17,14:20,0.414,0.237,0.423,0.386,0.365,0.198,0.170,northwest,6.1,No
2016/11/17,14:30,0.414,0.238,0.421,0.385,0.365,0.199,0.172,north-northwest,10.1,No
2016/11/17,14:40,0.413,0.237,0.421,0.388,0.360,0.198,0.170,north-northwest,7.4,No
2016/11/17,14:50,0.413,0.238,0.422,0.385,0.362,0.199,0.172,north,5.8,No
2016/11/17,15:00,0.413,0.238,0.423,0.388,0.366,0.199,0.171,north-northwest,5.3,No
2016/11/17,15:10,0.412,0.238,0.425,0.386,0.365,0.198,0.172,northwest,2.5,No
2016/11/17,15:20,0.414,0.238,0.422,0.386,0.366,0.199,0.171,west-northwest,4.2,No
2016/11/17,15:30,0.414,0.237,0.423,0.386,0.365,0.198,0.172,north,3.0,No
2016/11/17,15:40,0.415,0.239,0.422,0.386,0.364,0.199,0.171,north,3.2,No
2016/11/17,15:50,0.412,0.237,0.426,0.387,0.366,0.199,0.172,north,3.0,No
2016/11/17,16:00,0.414,0.238,0.422,0.386,0.364,0.199,0.171,northwest,0.8,No
2016/11/17,16:10,0.413,0.238,0.422,0.386,0.366,0.199,0.171,northwest,2.0,No
2016/11/17,16:20,0.413,0.237,0.424,0.387,0.365,0.199,0.171,northwest,4.3,No
2016/11/17,16:30,0.414,0.238,0.421,0.386,0.366,0.198,0.171,northwest,6.4,No
2016/11/17,16:40,0.415,0.238,0.423,0.388,0.364,0.199,0.172,north-northwest,8.7,No
2016/11/17,16:50,0.413,0.238,0.422,0.387,0.365,0.200,0.174,north-northwest,6.2,No
2016/11/17,17:00,0.416,0.237,0.423,0.386,0.366,0.197,0.172,north,5.6,No
2016/11/17,17:10,0.414,0.238,0.424,0.387,0.366,0.199,0.173,north,6.7,No
2016/11/17,17:20,0.414,0.238,0.422,0.387,0.367,0.198,0.172,north,5.5,No
2016/11/17,17:30,0.415,0.238,0.424,0.385,0.365,0.199,0.172,north,5.5,No
2016/11/17,17:40,0.414,0.238,0.423,0.388,0.365,0.200,0.172,north-northeast,3.6,No
2016/11/17,17:50,0.412,0.239,0.423,0.386,0.366,0.200,0.172,north-northeast,7.3,No
2016/11/17,18:00,0.415,0.238,0.425,0.387,0.366,0.200,0.172,north,5.9,No
2016/11/17,18:10,0.415,0.238,0.424,0.388,0.365,0.200,0.172,north-northeast,4.0,No
2016/11/17,18:20,0.413,0.239,0.422,0.386,0.365,0.200,0.172,north,2.8,No
2016/11/17,18:30,0.416,0.238,0.425,0.387,0.365,0.199,0.172,north-northeast,5.0,No
2016/11/17,18:40,0.414,0.238,0.422,0.387,0.366,0.199,0.173,north-northeast,5.0,No
2016/11/17,18:50,0.412,0.237,0.423,0.387,0.368,0.200,0.172,north,7.3,No
2016/11/17,19:00,0.415,0.237,0.424,0.388,0.366,0.200,0.171,north,4.5,No
2016/11/17,19:10,0.413,0.237,0.423,0.387,0.364,0.200,0.172,north,6.1,No
2016/11/17,19:20,0.413,0.238,0.424,0.386,0.367,0.199,0.171,north-northwest,4.5,No
2016/11/17,19:30,0.415,0.239,0.424,0.389,0.365,0.199,0.172,north,3.3,No
2016/11/17,19:40,0.413,0.238,0.422,0.387,0.366,0.199,0.171,north-northwest,3.9,No
2016/11/17,19:50,0.411,0.239,0.423,0.387,0.365,0.200,0.173,north-northwest,6.4,No
2016/11/17,20:00,0.413,0.238,0.425,0.388,0.366,0.199,0.172,north-northwest,5.0,No
2016/11/17,20:10,0.415,0.238,0.423,0.386,0.365,0.199,0.172,north,2.9,No
2016/11/17,20:20,0.414,0.238,0.424,0.386,0.366,0.199,0.172,north-northwest,1.3,No
2016/11/17,20:30,0.413,0.238,0.425,0.387,0.365,0.199,0.172,northwest,1.1,No
2016/11/17,20:40,0.415,0.237,0.423,0.387,0.365,0.200,0.172,northwest,1.4,No
2016/11/17,20:50,0.416,0.238,0.424,0.387,0.365,0.199,0.172,northwest,1.4,No
2016/11/17,21:00,0.414,0.238,0.424,0.388,0.366,0.200,0.173,northwest,0.8,No
2016/11/17,21:10,0.417,0.237,0.422,0.387,0.363,0.199,0.172,northwest,0.9,No
2016/11/17,21:20,0.414,0.237,0.423,0.386,0.363,0.200,0.172,northwest,1.5,No
2016/11/17,21:30,0.413,0.238,0.425,0.387,0.367,0.199,0.172,west-northwest,1.7,No
2016/11/17,21:40,0.415,0.237,0.423,0.387,0.365,0.201,0.173,northwest,2.7,No
2016/11/17,21:50,0.414,0.238,0.424,0.386,0.364,0.198,0.171,west-northwest,2.2,No
2016/11/17,22:00,0.415,0.237,0.424,0.388,0.364,0.199,0.172,west-northwest,0.8,No
2016/11/17,22:10,0.413,0.238,0.423,0.387,0.365,0.199,0.172,west,1.2,No
2016/11/17,22:20,0.414,0.237,0.422,0.385,0.364,0.200,0.172,west,1.6,No
2016/11/17,22:30,0.414,0.237,0.425,0.388,0.366,0.200,0.172,west,2.1,No
2016/11/17,22:40,0.414,0.237,0.422,0.389,0.365,0.200,0.172,west-northwest,2.4,No
2016/11/17,22:50,0.414,0.238,0.423,0.387,0.365,0.201,0.172,west-northwest,2.2,No
2016/11/17,23:00,0.416,0.238,0.425,0.387,0.365,0.201,0.172,west-northwest,2.5,No
2016/11/17,23:10,0.412,0.238,0.424,0.387,0.365,0.199,0.172,northwest,2.2,No
2016/11/17,23:20,0.413,0.237,0.424,0.388,0.365,0.199,0.172,north-northwest,2.2,No
2016/11/17,23:30,0.413,0.237,0.422,0.387,0.364,0.200,0.172,north-northwest,2.8,No
2016/11/17,23:40,0.413,0.239,0.425,0.388,0.365,0.200,0.173,north-northwest,3.1,No
2016/11/17,23:50,0.412,0.238,0.423,0.388,0.365,0.200,0.173,north-northwest,2.3,No
